Location: Radomski Observatory
(40.2854°N, 79.5145°W)
Time: 07:09:23
(UTC-04:00)

Daily predictions for brighter satellites

Satellite Brightness Start Highest point End
(mag) Time Altitude Azimuth Time Altitude Azimuth Time Altitude Azimuth
Cosmos 2150 Rocket 4.2 19:56:04 10° SSW 20:01:13 79° WNW 20:06:24 10° NNE
FREGAT/IRIS 2.6 19:58:16 10° SSE 20:01:19 73° ENE 20:04:22 10° N
Cosmos 1821 Rocket 4.1 19:55:33 10° S 20:01:55 78° E 20:08:17 10° N
Lacrosse 4 Rocket 2.8 19:59:52 10° SW 20:03:42 41° WNW 20:07:33 10° NNE
Cosmos 1953 3.6 20:01:18 10° SE 20:04:21 21° E 20:07:23 10° NE
Cosmos 1898 Rocket 4.4 20:00:12 10° SSW 20:05:25 56° WNW 20:10:37 10° N
COSMOS 2406 4.4 20:04:47 10° NW 20:10:17 48° WSW 20:15:43 10° S
Helios 1A 4.4 20:07:44 10° ESE 20:10:45 20° ENE 20:13:49 10° NNE
Meteor 2-5 Rocket 4.5 20:06:55 10° NNW 20:12:35 61° W 20:18:19 10° S
Cosmos 1125 Rocket 4.1 20:09:26 10° SSE 20:14:01 33° E 20:18:39 10° NE
Resurs 01 Rocket 1.9 20:10:11 10° SE 20:14:23 46° ENE 20:18:37 10° N
Cosmos 1766 3.1 20:11:57 10° S 20:15:48 77° E 20:19:41 10° N
Cosmos 1844 4.4 20:10:54 10° SW 20:16:36 61° WNW 20:22:22 10° NNE
Cosmos 1605 Rocket 4.1 20:13:55 10° S 20:20:02 59° E 20:26:16 10° NNE
Cosmos-2242 4.4 20:19:27 10° SE 20:22:23 19° E 20:25:21 10° NE
Lacrosse 5 rocket 3.2 20:21:38 10° NNW 20:24:12 16° NNE 20:26:40 10° ENE
HJ-1C 3.5 20:25:29 10° S 20:28:52 80° WSW 20:32:18 10° NNW
SeaSat 1 2.5 20:23:59 10° SSE 20:28:55 87° WSW 20:33:53 10° NNW
Cosmos 1674 3.9 20:26:57 10° NNE 20:30:01 23° ENE 20:31:53 16° ESE
SAR-Lupe-4 4.3 20:31:34 13° SE 20:34:17 33° ENE 20:37:32 10° N
Cosmos 2123 Rocket 4.0 20:28:17 10° N 20:34:38 90° NW 20:40:55 10° S
SL-27 R/B 3.7 20:33:42 10° NNW 20:37:08 45° WSW 20:40:36 10° S
RESURS DK-1 3.3 20:35:13 10° NW 20:39:13 48° WSW 20:43:11 10° S
Cosmos 2344 4.0 20:33:57 10° SW 20:41:34 68° NW 20:50:12 10° NNE
CZ-2D R/B 3.2 20:39:14 10° SSE 20:43:04 70° ENE 20:46:57 10° N
BREEZE-M DEB (TANK) 4.4 20:42:01 10° NNW 20:43:22 14° NNE 20:44:40 11° NE
Meteor 1-21 Rocket 4.4 20:38:32 10° N 20:44:16 56° ENE 20:50:03 10° SSE
CZ-3B DEB 3.7 20:35:11 10° WSW 20:46:15 53° NW 20:51:21 10° NE
Meteor 1-29 3.7 20:43:16 10° NE 20:46:24 31° E 20:48:19 18° SSE
In-Cosmos 22 4.2 20:41:19 10° NNW 20:46:38 80° W 20:51:54 10° S
Cosmos 1805 3.2 20:43:54 10° S 20:47:48 87° W 20:51:43 10° N
GPS 2-05 Rocket1 4.0 20:47:21 10° SW 20:50:28 28° SSE 20:51:21 25° SE
Cosmos 1818 3.5 20:45:01 10° NNW 20:50:30 77° ENE 20:54:41 17° SE
COSMOS 2487 2.8 20:48:36 10° N 20:52:02 43° ENE 20:53:15 31° ESE
ALOS 3.5 20:48:00 10° S 20:52:27 43° W 20:56:56 10° NNW
SAR-Lupe-1 4.2 20:51:15 24° SE 20:53:07 49° ENE 20:56:36 10° N
Cosmos 1153 Rocket 4.5 20:47:01 10° S 20:53:23 74° E 20:59:47 10° N
Resurs 1-3 3.8 20:50:24 10° S 20:54:46 75° WSW 20:59:10 10° NNW
Cosmos 2061 Rocket 4.4 20:50:54 10° SSE 20:56:49 42° E 21:02:47 10° NNE
Cosmos 1269 Rocket 4.0 20:51:42 10° NNW 20:56:58 65° ENE 21:00:49 19° SSE
Meteor 1-4 Rocket 2.5 20:55:44 10° SSW 20:59:12 77° W 21:02:40 10° N
Timation 1 Rocket 4.4 20:54:21 10° SSW 21:00:23 84° WNW 21:06:27 10° NNE
Timation 2 Rocket 4.0 20:55:41 10° NNW 21:01:55 57° ENE 21:05:26 25° SE
Cosmos 1833 Rocket 2.7 20:56:48 10° NNW 21:02:23 61° ENE 21:05:39 25° SE
Cosmos 1470 2.9 21:00:38 14° SSE 21:03:49 50° E 21:07:41 10° NNE
Cosmos 1408 Rocket 3.5 21:00:25 10° N 21:04:53 67° E 21:07:46 21° SSE
Cosmos 2278 Rocket 3.5 21:02:12 10° SW 21:07:33 41° WNW 21:12:56 10° N
Cosmos 1544 4.2 21:04:08 10° SSW 21:07:37 45° W 21:11:10 10° N
Cosmos 372 Rocket 3.8 21:06:27 10° SSW 21:11:34 85° ESE 21:16:44 10° NNE
Spot 1 4.3 21:07:43 14° SSE 21:11:43 86° WSW 21:16:39 10° NNW
Cosmos 1340 Rocket 3.0 21:07:55 10° N 21:11:49 46° ENE 21:12:09 45° E
CZ-4B DEB 2.5 21:12:03 69° ENE 21:12:03 69° ENE 21:15:07 10° N
Cosmos 1733 3.1 21:10:59 28° SSE 21:12:50 62° E 21:16:41 10° NNE
Cosmos 1459 Rocket 3.9 21:07:32 10° S 21:13:43 62° E 21:19:47 10° NNE
USA 215 3.2 21:11:35 10° NE 21:18:01 58° SE 21:24:25 10° SSW
ATLAS 5 CENTAUR R/B 1.6 21:14:04 10° SSW 21:18:42 75° ESE 21:23:45 10° NE
ISS -2.9 21:16:14 10° SW 21:18:24 36° SSW 21:18:24 36° SSW
Cosmos 2173 Rocket 3.9 21:13:22 10° S 21:19:27 67° E 21:25:40 10° NNE
Cosmos 158 Rocket 3.9 21:14:53 10° NNW 21:20:03 87° ENE 21:22:45 30° SSE
Cosmos 2297 4.1 21:17:38 10° SSW 21:23:18 67° WNW 21:29:02 10° NNE
Cosmos 1867 4.0 21:20:21 10° SW 21:25:45 65° NW 21:31:13 10° NNE
Tiangong 1 3.7 21:24:48 10° WSW 21:25:51 11° SW 21:25:51 11° SW
Abrixas 3.8 21:24:56 10° WNW 21:26:58 34° WSW 21:26:58 34° WSW
Helios 1B rocket 3.2 21:28:41 10° N 21:32:42 51° WNW 21:36:41 10° SSW
Cosmos 494 Rocket 4.3 21:32:35 10° N 21:37:19 44° ENE 21:37:19 44° ENE
Cosmos 2082 Rocket 2.6 21:32:37 10° NNW 21:38:13 62° WSW 21:41:10 28° S
USA 186 4.4 21:39:54 13° W 21:39:54 13° W 21:40:42 10° WNW
Lacrosse 5 4.0 21:35:21 10° W 21:39:27 24° NNW 21:43:34 10° NNE
Meteor 2-17 Rocket 4.3 21:40:14 25° S 21:43:58 75° E 21:50:08 10° NNE
SPOT 5 3.9 21:45:02 35° NE 21:45:02 35° NE 21:49:08 10° N
GP-B 4.4 21:41:02 10° SSW 21:45:12 40° W 21:49:23 10° NNW
Envisat 3.3 21:42:59 31° S 21:45:20 65° W 21:50:24 10° NNW
Meteor 1-16 Rocket 4.2 21:44:17 49° SSE 21:45:47 68° E 21:51:41 10° NNE
Cosmos 1939 Rocket 3.1 21:45:32 64° SW 21:45:52 67° W 21:50:00 10° NNW
Cosmos 1271 Rocket 3.9 21:45:27 10° SSW 21:49:17 43° WNW 21:53:09 10° N
MetOp-A 4.4 21:50:03 49° NE 21:50:03 49° NE 21:54:46 10° N
USA 267 4.3 21:48:09 28° ENE 21:50:16 34° NNE 21:56:01 10° NW
ARGOS 4.1 21:51:33 34° NE 21:51:33 34° NE 21:55:24 10° N
Resurs 01 Rocket 4.4 21:48:27 10° SW 21:51:05 16° W 21:53:45 10° NW
H-2A R/B 3.8 21:52:51 20° NE 21:52:51 20° NE 21:55:22 10° NNE
Cosmos 2016 Rocket 3.8 21:47:02 22° S 21:51:13 86° E 21:57:24 10° N
Cosmos 1725 Rocket 3.8 21:59:08 68° ESE 21:59:22 69° E 22:05:32 10° NNE
Terra 4.3 22:04:46 10° NNE 22:04:46 10° NNE 22:04:55 10° NNE
ERS-1 Rocket 2.9 22:03:22 81° W 22:03:22 81° W 22:08:21 10° NNW
Lacrosse 5 rocket 2.7 22:00:04 10° NW 22:02:25 35° NW 22:02:25 35° NW
Tsikada Rocket 3.9 22:11:27 10° N 22:17:28 82° NE 22:17:28 82° NE
Cosmos 2251 Rocket 4.4 22:29:57 10° NNW 22:34:11 48° WNW 22:34:11 48° WNW
CZ-3B DEB 4.4 22:56:03 10° NW 22:58:50 13° NNW 22:59:51 13° N
USA 215 4.1 22:54:44 10° NE 23:00:53 45° NNW 23:07:00 10° WSW
ATLAS 5 CENTAUR R/B 4.4 23:00:39 10° W 23:04:02 18° NW 23:07:37 10° N
H-2A R/B 4.3 23:33:28 22° NW 23:33:28 22° NW 23:35:26 10° NNW
USA 267 4.3 23:35:30 40° NW 23:35:30 40° NW 23:39:24 10° NW
